NOAA-17
1 27453U 02032A 12025.72391704 .00000050 00000-0 39381-4 0 05754
2 27453 098.3533 059.9028 0011197 214.0139 146.0318 14.24386107498332
NOAA-18
1 28654U 05018A 12025.74758509 .00000001 00000-0 25780-4 0 00510
2 28654 099.0277 342.7873 0014063 195.6917 164.3823 14.11594838344324
NOAA-19
1 33591U 09005A 12025.72338195 .00000244 00000-0 15893-3 0 02401
2 33591 098.8520 327.3939 0014850 067.7938 292.4807 14.11285542152776
HUBBLE
1 20580U 90037B 12026.22940686 .00002061 00000-0 14050-3 0 9309
2 20580 028.4705 358.8017 0003110 335.4313 024.6203 15.02133642993210
ISS
1 25544U 98067A 12026.80971648 .00022510 00000-0 28529-3 0 8958
2 25544 051.6430 116.2580 0021930 327.1352 128.5455 15.59095309755814
CO-58
1 28895U 05043F 12025.83215204 .00001027 00000-0 22081-3 0 00840
2 28895 097.9372 258.2410 0016771 241.0415 118.9086 14.60460565332730
FALCON
1 30776U 07006E 12026.55291855 .00004227 00000-0 28310-3 0 2688
2 30776 035.4330 067.3189 0002077 228.6806 131.3732 15.06479606268724
MAST
1 31126U 07012K 12025.95516102 .00000689 00000-0 16449-3 0 03727
2 31126 097.8806 045.4100 0093518 196.5595 163.2560 14.54017892253456
CAPE1
1 31130U 07012P 12026.55727340 .00000820 00000-0 19719-3 0 3794
2 31130 097.8855 042.4636 0101613 206.8386 152.7539 14.52749992253062
COMPASS
1 32787U 08021E 12025.69261347 .00003189 00000-0 39380-3 0 02064
2 32787 097.8217 090.1343 0015750 166.5962 193.5708 14.83445773202537
AAUSAT2
1 32788U 08021F 12025.82591828 .00003256 00000-0 39921-3 0 01986
2 32788 097.8223 090.5708 0016172 165.8129 194.3575 14.83718961202577
DO-64
1 32789U 08021G 12025.86327804 .00004692 00000-0 55752-3 0 02157
2 32789 097.8316 092.1400 0015217 163.7984 196.3700 14.84822768202601
CO-66
1 32791U 08021J 12025.63076655 .00002409 00000-0 30261-3 0 02028
2 32791 097.8212 089.9158 0015897 166.3371 193.8272 14.82960406202466
RS-30
1 32953U 08025A 12026.50359182 .00000010 00000-0 00000 0 0 4671
2 32953 082.4998 023.8619 0017425 259.6894 100.2229 12.43020353166838
TACSAT-3
1 35001U 09028A 12026.81591419 .00093088 00000-0 72790-3 0 8453
2 35001 040.4479 239.7374 0005107 319.9121 040.1225 15.70512357151932
PHARMSAT
1 35002U 09028B 12026.85580099 .00052314 00000-0 54990-3 0 7773
2 35002 040.4647 242.3033 0006755 078.9174 281.2367 15.63397822151915
METEOR-M
1 35865U 09049A 12026.79025528 -.00000016 00000-0 12652-4 0 997
2 35865 098.6759 083.6542 0003200 097.9947 262.1592 14.21854226122367
RS-38
1 35869U 09049E 12026.62069582 .00000047 00000-0 41048-4 0 973
2 35869 098.6729 083.5043 0005429 102.6249 257.5551 14.22051653122353
ARISSAT1
1 37772U 98067CK 12004.04884568 .13494171 12416-4 77857-3 0 4794
2 37772 051.6129 213.1240 0007478 255.9283 104.1611 16.41716225 24077
JUGNU
1 37839U 11058B 12025.50564863 .00000619 00000-0 19019-3 0 745
2 37839 019.9643 148.6643 0019874 080.1756 280.0891 14.12019925 14919
SRMSAT
1 37841U 11058D 12025.50650957 .00000264 00000-0 00000-0 0 00752
2 37841 019.9708 150.7313 0011502 050.8365 309.3097 14.10110123014892
RAX-2
1 37853U 11061D 12026.88522335 .00008574 00000-0 69419-3 0 809
2 37853 101.7085 002.4510 0251627 036.1473 325.6445 14.78600858 13357
AUBIESAT
1 37854U 11061E 12026.87202004 .00009549 00000-0 76035-3 0 824
2 37854 101.7114 002.5177 0253335 035.7882 325.9999 14.78857505 13347
HRBE
1 37855U 11061F 12025.92746880 .00008640 00000-0 68942-3 0 00925
2 37855 101.7130 001.1320 0253830 038.3261 323.5705 14.78768749013206
